Regional Weather Roundup
Issued by NWS

Home | Current Version | Previous Version | Text Only | Print | Product List | Glossary On
Versions: 1 2 3 4 5 6 7 8 9 10 11 12 13 14 15 16 17 18 19 20 21 22 23 24 25 26 27
000
ASUS45 KREV 240610
RWRNV
NEVADA REGIONAL WEATHER ROUNDUP
NATIONAL WEATHER SERVICE RENO NV
1100 PM PDT MON OCT 23 2017

NOTE: "FAIR" INDICATES FEW OR NO CLOUDS BELOW 12,000 FEET WITH NO
SIGNIFICANT WEATHER AND/OR OBSTRUCTIONS TO VISIBILITY.

NVZ001-003-004-240700-
WESTERN NEVADA

CITY           SKY/WX    TMP DP  RH WIND       PRES   REMARKS
RENO           CLEAR     54  41  61 CALM      30.61R
6HR MIN TEMP:  53; 6HR MAX TEMP:  71;

CARSON CITY    FAIR      48  37  66 CALM      30.63R
MINDEN         FAIR      41  34  75 E5        30.62S
SLIDE MTN        N/A     43  34  70 E16         N/A
FALLON         CLEAR     48  34  58 VRB6      30.59R
6HR MIN TEMP:  48; 6HR MAX TEMP:  73;

LOVELOCK       CLEAR     53  36  52 N7        30.60R
6HR MIN TEMP:  47; 6HR MAX TEMP:  71;

HAWTHORNE      CLEAR     55  37  50 SW5       30.59R
$$

NVZ002-CAZ072-073-240700-
NORTHERN AND CENTRAL SIERRA

CITY           SKY/WX    TMP DP  RH WIND       PRES   REMARKS
S. LAKE TAHOE  CLEAR     40  36  86 S6        30.65R
6HR MIN TEMP:  40; 6HR MAX TEMP:  64;

TRUCKEE        CLEAR     39  36  87 CALM      30.65S
SQUAW VLY 8000 NOT AVBL
SUSANVILLE     CLEAR     46  39  76 W5        30.61R
BLUE CANYON    CLEAR     65  33  30 NE10G22   30.49R
MAMMOTH LAKES  FAIR      47  30  52 NW3       30.69R
6HR MIN TEMP:  47; 6HR MAX TEMP:  73;

BRIDGEPORT     FAIR      38  29  70 CALM      30.69R
$$

NVZ030-031-036-240700-
NORTHERN NEVADA

CITY           SKY/WX    TMP DP  RH WIND       PRES   REMARKS
ELKO           CLEAR     47  26  44 SE3       30.66S
6HR MIN TEMP:  40; 6HR MAX TEMP:  68;

WINNEMUCCA     CLEAR     53  33  46 NE12      30.64S
6HR MIN TEMP:  49; 6HR MAX TEMP:  67;

WENDOVER       CLEAR     46  34  62 NE6       30.66S
$$

NVZ035-037-240700-
CENTRAL NEVADA

CITY           SKY/WX    TMP DP  RH WIND       PRES   REMARKS
ELY            CLEAR     46  34  62 N12       30.67S
6HR MIN TEMP:  43; 6HR MAX TEMP:  65; 6HR PCP: TRACE;

EUREKA           N/A     39  29  67 S3        30.67R
6HR MIN TEMP:  35; 6HR MAX TEMP:  65;

$$

NVZ013-014-240700-
SOUTH CENTRAL NEVADA

CITY           SKY/WX    TMP DP  RH WIND       PRES   REMARKS
TONOPAH        CLEAR     55  33  43 N10       30.59R
6HR MIN TEMP:  55; 6HR MAX TEMP:  76;

$$

NVZ017-020-022-240700-
SOUTHERN NEVADA

CITY           SKY/WX    TMP DP  RH WIND       PRES   REMARKS
LAS VEGAS      CLEAR     78  37  22 NE14      30.31S
6HR MIN TEMP:  77; 6HR MAX TEMP:  90;

N. LAS VEGAS   CLEAR     75  36  24 N5        30.31R
6HR MIN TEMP:  75; 6HR MAX TEMP:  90;

NELLIS AFB     CLEAR     79  37  22 N12       30.30R
6HR MIN TEMP:  74; 6HR MAX TEMP:  90;

HENDERSON      CLEAR     74  37  26 N13       30.34R
6HR MIN TEMP:  74; 6HR MAX TEMP:  87;

MERCURY        CLEAR     69  33  26 E9        30.39R
6HR MIN TEMP:  69; 6HR MAX TEMP:  87;

$$




USA.gov is the U.S. government's official web portal to all federal, state and local government web resources and services.